Flag for Germany Weather past 2 weeks in Sondershausen, Thuringia, Germany

Now
48 °F

Passing clouds.


Feels Like: 47 °F
Forecast: 42 / 54 °F
Wind: 3 mph from Southwest

Location: Erfurt-Bindersleben

Current Time: Oct 21, 2014 at 12:08:01 AM

Latest Report: Oct 20, 2014 at 11:00 PM


Visibility: 44 mi

Pressure: 29.98 "Hg

Humidity: 86%

Dew point: 44 °F

Location of SondershausenLocation

Historic Weather in Sondershausen — Graph

°F

Sondershausen temperature yesterday

Maximum temperature yesterday: 64 °F (at 1:00 AM)
Minimum temperature yesterday: 49 °F (at 10:00 PM)
Average temperature yesterday: 57 °F

Past Weeks' High & Low Weather Summary

 TemperatureHumidityPressure
High68 °F (Oct 9, 5:00 PM)100% (Oct 11, 5:00 AM)30.23 "Hg (Oct 11, 5:00 AM)
Low42 °F (Oct 6, 7:00 AM)58% (Oct 15, 3:00 PM)29.68 "Hg (Oct 7, 1:00 PM)
Average57 °F85%29.90 "Hg
* Reported Oct 5 10:00 PM — Oct 20 10:00 PM, Sondershausen, Weather by CustomWeather, © 2014

Note: Actual official high and low records may vary slightly from our data, if they occured in-between our weather recording intervals... More about our weather records

Advertising

Sondershausen weather history for previous 24 hours

 ConditionsComfort  
Time TempWeatherWind HumidityBarometerVisibility
10:00 PM
Oct 20
49 °FPassing clouds.6 mph86%29.98 "Hg43 mi
9:00 PM51 °FPassing clouds.6 mph81%29.97 "Hg43 mi
8:00 PM54 °FPassing clouds.8 mph74%29.97 "Hg43 mi
7:00 PM54 °FPassing clouds.6 mph75%29.98 "Hg43 mi
6:00 PM56 °FOvercast.7 mph71%29.99 "Hg47 mi
5:00 PM57 °FOvercast.7 mph69%29.99 "Hg47 mi
4:00 PM58 °FOvercast.8 mph67%30.00 "Hg47 mi
3:00 PM60 °FOvercast.8 mph65%30.01 "Hg47 mi
2:00 PM59 °FOvercast.12 mph66%30.01 "Hg47 mi
1:00 PM58 °FOvercast.8 mph72%30.03 "Hg43 mi
12:00 PM58 °FPartly sunny.8 mph71%30.03 "Hg37 mi
11:00 AM57 °FPartly sunny.9 mph74%30.03 "Hg37 mi
10:00 AM56 °FOvercast.9 mph80%30.03 "Hg37 mi
9:00 AM55 °FOvercast.5 mph79%30.03 "Hg31 mi
8:00 AM55 °FOvercast.6 mph77%30.01 "Hg31 mi
7:00 AM56 °FPassing clouds.7 mph77%29.99 "Hg25 mi
5:00 AM58 °FPassing clouds.9 mph79%29.98 "Hg25 mi
4:00 AM59 °FPassing clouds.10 mph82%29.99 "Hg25 mi
3:00 AM60 °FOvercast.8 mph92%29.98 "Hg25 mi
2:00 AM60 °FRain. Overcast.10 mph94%29.99 "Hg3 mi
1:00 AM64 °FOvercast.9 mph79%29.96 "Hg31 mi
12:00 AM63 °FPassing clouds.7 mph83%29.97 "Hg31 mi
Weather by CustomWeather, © 2014

See weather overviewHow to use our weather pages